Tracking 30995 objects as of 5-Jul-2025
HD Live streaming from Space Station
objects crossing your sky now

THORAD DELTA 1 DEB

Track THORAD DELTA 1 DEB now!
10-day predictions


NORAD ID: 8184
Int'l Code: 1974-089BA
Perigee: 1,431.1 km
Apogee: 1,532.3 km
Inclination: 101.5 °
Period: 115.4 minutes
Semi major axis: 7852 km
RCS: 0.8469 m2 (medium)
Launch date: November 15, 1974
Source: United States (US)
Launch site: AIR FORCE WESTERN TEST RANGE (AFWTR)

Note: This is SATELLITE DEBRIS
Your satellite tracking list
STARLINK-3588
Track 1 satellite(s)




NASA's NSSDC Master Catalog

Two Line Element Set (TLE):
1 08184U 74089BA  25185.91162112 -.00000017  00000-0  17393-3 0  9998
2 08184 101.4863 155.7783 0064438  61.5165   0.1834 12.47589305305605
Source of the keplerian elements: AFSPC